KE8BSM Weather Reports


Display with metric or nautical units.
time (UTC)temp
F
wind
direction
speed
MPH
gust
MPH
rain 1hr
in
rain 24hr
in
rain mn
in
humidity
%
barometer
mb
20260505052517 56 233 1.0 2.0 0.00 0.00 0.00 83 999.9
20260505051517 56 246 2.0 3.0 0.00 0.00 0.00 82 999.9
20260505050517 57 241 1.0 3.0 0.00 0.00 0.00 82 999.7
20260505041515 59 204 4.0 7.0 0.00 0.00 0.00 76 999.5
20260505040516 59 227 4.0 8.0 0.00 0.00 0.00 75 999.3
20260505035516 60 263 4.0 6.0 0.00 0.00 0.00 74 999.4
20260505034516 62 168 7.0 10.0 0.00 0.00 0.00 71 999.4
20260505033516 63 339 0.0 1.0 0.00 0.00 0.00 72 999.3
20260505032516 63 343 1.0 3.0 0.00 0.00 0.00 70 999.0
20260505031516 64 224 1.0 3.0 0.00 0.00 0.00 69 998.6
20260505030516 64 200 2.0 4.0 0.00 0.00 0.00 68 998.4
20260505025517 64 191 2.0 4.0 0.00 0.00 0.00 67 998.0
20260505024617 64 338 2.0 3.0 0.00 0.00 0.00 68 997.7
20260505023517 64 200 2.0 3.0 0.00 0.00 0.00 68 997.5
20260505022537 64 206 3.0 6.0 0.00 0.00 0.00 67 997.2
20260505021538 65 221 2.0 4.0 0.00 0.00 0.00 65 997.6
20260505020518 65 206 3.0 5.0 0.00 0.00 0.00 65 997.5
20260505015518 66 204 3.0 6.0 0.00 0.00 0.00 63 997.3
20260505014518 67 157 3.0 6.0 0.00 0.00 0.00 63 997.4
20260505013535 68 219 5.0 9.0 0.00 0.00 0.00 62 997.5
20260505012515 69 223 4.0 7.0 0.00 0.00 0.00 60 996.8
20260505011516 70 211 3.0 6.0 0.00 0.00 0.00 58 996.6
20260505010535 70 257 5.0 8.0 0.00 0.00 0.00 58 996.5
20260505005515 70 197 4.0 5.0 0.00 0.00 0.00 57 996.4
20260505004516 70 230 5.0 7.0 0.00 0.00 0.00 56 996.6
20260505003516 71 192 2.0 3.0 0.00 0.00 0.00 54 996.5
20260505002516 72 203 3.0 6.0 0.00 0.00 0.00 51 996.2
20260505001536 72 182 1.0 3.0 0.00 0.00 0.00 43 996.0
20260505000516 73 148 1.0 3.0 0.00 0.00 0.00 42 995.9
20260504235516 73 188 1.0 3.0 0.00 0.00 0.00 41 995.8
20260504234517 74 173 1.0 2.0 0.00 0.00 0.00 41 996.0
20260504233517 74 235 2.0 3.0 0.00 0.00 0.00 40 996.1
20260504232516 75 206 3.0 5.0 0.00 0.00 0.00 40 996.3
20260504231517 75 230 1.0 2.0 0.00 0.00 0.00 41 996.4
20260504230518 74 233 3.0 5.0 0.00 0.00 0.00 39 996.7
20260504225517 74 203 2.0 3.0 0.00 0.00 0.00 40 996.9
20260504224518 74 270 3.0 6.0 0.00 0.00 0.00 38 997.0
20260504223517 75 199 3.0 8.0 0.00 0.00 0.00 39 997.3
20260504222518 75 171 2.0 3.0 0.00 0.00 0.00 38 997.4
20260504221518 74 250 3.0 5.0 0.00 0.00 0.00 39 997.5
20260504220515 74 202 2.0 5.0 0.00 0.00 0.00 39 997.6
20260504215516 74 251 6.0 10.0 0.00 0.00 0.00 39 997.6
20260504214516 74 223 4.0 5.0 0.00 0.00 0.00 39 997.8
20260504213516 74 248 3.0 6.0 0.00 0.00 0.00 39 997.8
20260504212516 75 200 1.0 3.0 0.00 0.00 0.00 38 997.9
20260504211516 74 208 4.0 7.0 0.00 0.00 0.00 38 998.0
20260504210516 74 245 5.0 7.0 0.00 0.00 0.00 39 998.2
20260504205516 74 195 5.0 8.0 0.00 0.00 0.00 39 998.3
20260504204517 74 225 6.0 9.0 0.00 0.00 0.00 40 998.5
20260504203517 74 310 7.0 12.0 0.00 0.00 0.00 39 998.6
20260504202517 73 277 5.0 8.0 0.00 0.00 0.00 38 998.6
20260504201517 73 226 8.0 12.0 0.00 0.00 0.00 38 998.8
20260504200517 73 198 6.0 9.0 0.00 0.00 0.00 37 998.9
20260504195517 73 149 2.0 6.0 0.00 0.00 0.00 41 999.0
20260504194517 73 231 5.0 8.0 0.00 0.00 0.00 42 999.0
20260504193538 72 183 6.0 9.0 0.00 0.00 0.00 40 999.1
20260504192517 73 192 5.0 8.0 0.00 0.01 0.00 42 999.2
20260504191518 73 232 5.0 8.0 0.00 0.01 0.00 39 999.2
20260504190535 73 225 5.0 8.0 0.00 0.01 0.00 36 999.3
20260504185515 73 222 4.0 6.0 0.00 0.01 0.00 34 999.1
20260504184515 73 224 7.0 9.0 0.00 0.01 0.00 33 999.3
20260504183516 72 281 5.0 7.0 0.00 0.01 0.00 35 999.2
20260504182516 72 221 5.0 9.0 0.00 0.01 0.00 33 999.2
20260504181516 72 215 6.0 8.0 0.00 0.01 0.00 32 999.2
20260504180536 72 215 4.0 6.0 0.00 0.01 0.00 32 999.3
20260504175516 73 266 4.0 8.0 0.00 0.01 0.00 31 999.5
20260504174536 72 246 4.0 8.0 0.00 0.01 0.00 31 999.6
20260504173536 72 282 5.0 8.0 0.00 0.01 0.00 32 999.6
20260504172517 72 261 4.0 8.0 0.00 0.01 0.00 33 1000.0
20260504171517 71 244 4.0 7.0 0.00 0.01 0.00 36 1000.1
20260504170517 71 216 2.0 3.0 0.00 0.01 0.00 35 1000.3
20260504150516 64 222 3.0 6.0 0.00 0.01 0.00 54 1001.8
20260504140540 60 235 5.0 8.0 0.00 0.01 0.00 64 1002.4
20260504130527 57 220 3.0 3.0 0.00 0.01 0.00 73 1003.1
20260504110528 48 183 2.0 2.0 0.00 0.01 0.00 87 1002.8
20260504100549 48 0.0 0.0 0.00 0.01 0.00 86 1002.8
20260504081516 50 168 2.0 2.0 0.00 0.01 0.00 81 1003.3
20260504080516 50 189 1.0 2.0 0.00 0.01 0.00 80 1003.4